Powrót do katalogu

STARLINK-6189

AktywnyŁącznośćVLEO
NORAD 56377·PAYLOAD·🇺🇸 United States

Wystrzelony May 4, 2023 z Cape Canaveral Space Force Station

Loading…

Następne Przeloty (najbliższe 24 godziny)

TLE

ŚwieżeSource: CelesTrak SupGP

Epoka: Sep 15, 2026, 02:43 UTC

1 56377C 23061D   26258.11368056  .00032272  00000+0  11704-2 0  2581
2 56377  43.0031 208.6424 0001222 259.0288 102.7875 15.27521480    14

Śledź STARLINK-6189 w czasie rzeczywistym z AllMySat

Download on the App Store